Time,TemperatureF,DewpointF,PressureIn,WindDirection,WindDirectionDegrees,WindSpeedMPH,WindSpeedGustMPH,Humidity,HourlyPrecipIn,Conditions,Clouds,dailyrainin,SoftwareType,DateUTC
2013-09-06 05:02:00,48.2,44.5,30.27,SSE,166,0.0,0.0,87,0.00,CLR,,0.00,WeatherDisplay:10.37,2013-09-06 09:02:00,
2013-09-06 05:03:00,48.2,44.5,30.27,SSE,166,0.0,0.0,87,0.00,CLR,,0.00,WeatherDisplay:10.37,2013-09-06 09:03:00,
2013-09-06 05:08:00,48.0,44.3,30.27,SSE,166,0.0,0.0,87,0.00,CLR,,0.00,WeatherDisplay:10.37,2013-09-06 09:08:00,
2013-09-06 05:13:00,47.8,44.4,30.27,SSE,166,0.0,0.0,88,0.00,CLR,,0.00,WeatherDisplay:10.37,2013-09-06 09:13:00,
2013-09-06 05:18:00,47.9,44.5,30.27,SSE,166,0.0,0.0,88,0.00,CLR,,0.00,WeatherDisplay:10.37,2013-09-06 09:18:00,
2013-09-06 05:23:00,47.9,44.5,30.28,SSE,166,0.0,0.0,88,0.00,CLR,,0.00,WeatherDisplay:10.37,2013-09-06 09:23:00,
2013-09-06 05:28:00,47.9,44.5,30.28,SSE,166,0.0,0.0,88,0.00,CLR,,0.00,WeatherDisplay:10.37,2013-09-06 09:28:00,
2013-09-06 05:33:00,47.9,44.5,30.27,South,175,0.0,0.0,88,0.00,CLR,,0.00,WeatherDisplay:10.37,2013-09-06 09:33:00,
2013-09-06 05:38:00,48.0,44.6,30.28,South,177,0.0,0.0,88,0.00,CLR,,0.00,WeatherDisplay:10.37,2013-09-06 09:38:00,
2013-09-06 05:43:00,48.1,45.0,30.27,South,177,0.0,0.0,89,0.00,CLR,,0.00,WeatherDisplay:10.37,2013-09-06 09:43:00,
2013-09-06 05:48:00,48.2,45.1,30.27,South,177,0.0,0.0,89,0.00,CLR,,0.00,WeatherDisplay:10.37,2013-09-06 09:48:00,
2013-09-06 05:53:00,48.2,45.1,30.27,South,183,0.0,0.0,89,0.00,CLR,,0.00,WeatherDisplay:10.37,2013-09-06 09:53:00,
2013-09-06 05:58:00,48.1,45.0,30.27,South,188,0.0,0.0,89,0.00,CLR,,0.00,WeatherDisplay:10.37,2013-09-06 09:58:00,
2013-09-06 06:03:00,48.0,44.9,30.28,South,187,0.0,0.0,89,0.00,CLR,,0.00,WeatherDisplay:10.37,2013-09-06 10:03:00,
2013-09-06 06:08:00,47.9,44.8,30.28,South,189,0.0,0.0,89,0.00,CLR,,0.00,WeatherDisplay:10.37,2013-09-06 10:08:00,
2013-09-06 06:13:00,47.9,44.8,30.27,South,187,0.0,0.7,89,0.00,CLR,,0.00,WeatherDisplay:10.37,2013-09-06 10:13:00,
2013-09-06 06:18:00,47.9,44.8,30.27,South,187,0.0,0.0,89,0.00,CLR,,0.00,WeatherDisplay:10.37,2013-09-06 10:18:00,
2013-09-06 06:23:00,47.8,44.7,30.27,South,187,0.0,0.0,89,0.00,CLR,,0.00,WeatherDisplay:10.37,2013-09-06 10:23:00,
2013-09-06 06:28:00,47.7,44.6,30.27,South,191,0.0,0.0,89,0.00,CLR,,0.00,WeatherDisplay:10.37,2013-09-06 10:28:00,
2013-09-06 06:33:00,47.7,44.6,30.27,South,191,0.0,0.0,89,0.00,CLR,,0.00,WeatherDisplay:10.37,2013-09-06 10:33:00,
2013-09-06 06:38:00,47.8,45.0,30.28,South,191,0.0,0.0,90,0.00,CLR,,0.00,WeatherDisplay:10.37,2013-09-06 10:38:00,
2013-09-06 06:43:00,47.8,45.0,30.28,South,191,0.0,0.0,90,0.00,CLR,,0.00,WeatherDisplay:10.37,2013-09-06 10:43:00,
2013-09-06 06:48:00,47.7,44.9,30.28,SSW,192,0.0,0.0,90,0.00,CLR,,0.00,WeatherDisplay:10.37,2013-09-06 10:48:00,
2013-09-06 06:53:00,47.8,45.0,30.28,South,191,0.0,0.0,90,0.00,CLR,,0.00,WeatherDisplay:10.37,2013-09-06 10:53:00,
2013-09-06 06:58:00,47.8,45.0,30.28,South,191,0.0,0.0,90,0.00,CLR,,0.00,WeatherDisplay:10.37,2013-09-06 10:58:00,
2013-09-06 07:03:00,47.6,44.8,30.28,South,191,0.0,0.0,90,0.00,CLR,,0.00,WeatherDisplay:10.37,2013-09-06 11:03:00,
2013-09-06 07:08:00,47.5,44.7,30.28,South,191,0.0,0.0,90,0.00,CLR,,0.00,WeatherDisplay:10.37,2013-09-06 11:08:00,
2013-09-06 07:13:00,47.3,44.5,30.28,South,191,0.0,0.0,90,0.00,CLR,,0.00,WeatherDisplay:10.37,2013-09-06 11:13:00,
2013-09-06 07:18:00,47.4,44.6,30.28,South,191,0.0,0.0,90,0.00,CLR,,0.00,WeatherDisplay:10.37,2013-09-06 11:18:00,
2013-09-06 07:23:00,47.3,44.5,30.28,South,191,0.0,0.0,90,0.00,CLR,,0.00,WeatherDisplay:10.37,2013-09-06 11:23:00,
2013-09-06 07:28:00,47.2,44.4,30.29,South,191,0.0,0.0,90,0.00,CLR,,0.00,WeatherDisplay:10.37,2013-09-06 11:28:00,
2013-09-06 07:33:00,47.2,44.4,30.29,South,191,0.0,0.0,90,0.00,CLR,,0.00,WeatherDisplay:10.37,2013-09-06 11:33:00,
2013-09-06 07:38:00,47.5,44.7,30.29,South,191,0.0,0.0,90,0.00,CLR,,0.00,WeatherDisplay:10.37,2013-09-06 11:38:00,
2013-09-06 07:43:00,47.5,44.7,30.29,South,191,0.0,0.0,90,0.00,CLR,,0.00,WeatherDisplay:10.37,2013-09-06 11:43:00,
2013-09-06 07:48:00,47.6,44.8,30.29,South,188,0.0,0.0,90,0.00,CLR,,0.00,WeatherDisplay:10.37,2013-09-06 11:48:00,
2013-09-06 07:53:00,47.8,45.0,30.29,South,191,0.0,0.0,90,0.00,CLR,,0.00,WeatherDisplay:10.37,2013-09-06 11:53:00,
2013-09-06 07:58:00,48.1,45.3,30.28,SSW,192,0.0,0.0,90,0.00,CLR,,0.00,WeatherDisplay:10.37,2013-09-06 11:58:00,
2013-09-06 08:04:00,48.3,45.2,30.28,South,187,1.2,1.2,89,0.00,CLR,,0.00,WeatherDisplay:10.37,2013-09-06 12:04:00,
2013-09-06 08:09:00,48.6,45.5,30.29,South,188,0.0,0.0,89,0.00,CLR,,0.00,WeatherDisplay:10.37,2013-09-06 12:09:00,
2013-09-06 08:14:00,48.8,45.7,30.29,SSW,207,5.8,5.8,89,0.00,CLR,,0.00,WeatherDisplay:10.37,2013-09-06 12:14:00,
2013-09-06 08:19:00,49.2,45.8,30.29,SSW,204,5.3,5.3,88,0.00,CLR,,0.00,WeatherDisplay:10.37,2013-09-06 12:19:00,
2013-09-06 08:24:00,49.8,46.4,30.29,SSW,203,4.6,4.6,88,0.00,CLR,,0.00,WeatherDisplay:10.37,2013-09-06 12:24:00,
2013-09-06 08:29:00,50.4,47.0,30.29,SSW,200,0.0,0.0,88,0.00,CLR,,0.00,WeatherDisplay:10.37,2013-09-06 12:29:00,
2013-09-06 08:34:00,50.5,46.8,30.28,WSW,245,9.2,9.2,87,0.00,CLR,,0.00,WeatherDisplay:10.37,2013-09-06 12:34:00,
2013-09-06 08:39:00,50.9,47.2,30.28,South,191,0.0,0.0,87,0.00,CLR,,0.00,WeatherDisplay:10.37,2013-09-06 12:39:00,
2013-09-06 08:44:00,51.2,47.2,30.28,SSW,211,4.6,4.6,86,0.00,CLR,,0.00,WeatherDisplay:10.37,2013-09-06 12:44:00,
2013-09-06 08:49:00,51.2,46.8,30.28,SSW,212,5.8,5.8,85,0.00,CLR,,0.00,WeatherDisplay:10.37,2013-09-06 12:49:00,
2013-09-06 08:54:00,51.4,47.0,30.28,South,189,8.1,8.1,85,0.00,CLR,,0.00,WeatherDisplay:10.37,2013-09-06 12:54:00,
2013-09-06 08:59:00,51.8,47.4,30.28,SSW,206,5.8,5.8,85,0.00,CLR,,0.00,WeatherDisplay:10.37,2013-09-06 12:59:00,
2013-09-06 09:04:00,52.0,47.3,30.28,SSW,197,11.5,11.5,84,0.00,CLR,,0.00,WeatherDisplay:10.37,2013-09-06 13:04:00,
2013-09-06 09:09:00,52.3,47.6,30.28,SW,214,12.7,12.7,84,0.00,CLR,,0.00,WeatherDisplay:10.37,2013-09-06 13:09:00,
2013-09-06 09:14:00,52.6,47.9,30.28,SW,223,8.1,8.1,84,0.00,CLR,,0.00,WeatherDisplay:10.37,2013-09-06 13:14:00,
2013-09-06 09:19:00,53.3,48.6,30.27,South,189,1.2,0.0,84,0.00,CLR,,0.00,WeatherDisplay:10.37,2013-09-06 13:19:00,
2013-09-06 09:24:00,53.6,48.6,30.27,SSW,193,8.1,8.1,83,0.00,CLR,,0.00,WeatherDisplay:10.37,2013-09-06 13:24:00,
2013-09-06 09:29:00,53.7,48.3,30.27,SW,215,6.9,6.9,82,0.00,CLR,,0.00,WeatherDisplay:10.37,2013-09-06 13:29:00,
2013-09-06 09:34:00,53.9,48.2,30.27,South,176,11.5,11.5,81,0.00,CLR,,0.00,WeatherDisplay:10.37,2013-09-06 13:34:00,
2013-09-06 09:39:00,54.1,48.4,30.27,South,190,8.1,8.1,81,0.00,CLR,,0.00,WeatherDisplay:10.37,2013-09-06 13:39:00,
2013-09-06 09:44:00,54.3,48.3,30.27,South,183,9.2,9.2,80,0.00,CLR,,0.00,WeatherDisplay:10.37,2013-09-06 13:44:00,
2013-09-06 09:49:00,55.1,49.0,30.27,SSW,202,4.6,0.0,80,0.00,CLR,,0.00,WeatherDisplay:10.37,2013-09-06 13:49:00,
2013-09-06 09:54:00,55.5,48.4,30.27,South,191,10.4,10.4,77,0.00,CLR,,0.00,WeatherDisplay:10.37,2013-09-06 13:54:00,
2013-09-06 09:59:00,55.8,49.0,30.27,SSW,195,8.1,0.0,78,0.00,CLR,,0.00,WeatherDisplay:10.37,2013-09-06 13:59:00,
2013-09-06 10:04:00,56.3,49.2,30.27,SSW,193,8.1,8.1,77,0.00,CLR,,0.00,WeatherDisplay:10.37,2013-09-06 14:04:00,
2013-09-06 10:09:00,56.4,48.6,30.28,South,189,8.1,8.1,75,0.00,CLR,,0.00,WeatherDisplay:10.37,2013-09-06 14:09:00,
2013-09-06 10:14:00,56.8,49.0,30.27,SW,214,5.8,5.8,75,0.00,CLR,,0.00,WeatherDisplay:10.37,2013-09-06 14:14:00,
2013-09-06 10:19:00,57.1,49.2,30.27,South,175,5.8,5.8,75,0.00,CLR,,0.00,WeatherDisplay:10.37,2013-09-06 14:19:00,
2013-09-06 10:24:00,57.7,49.8,30.27,SW,234,8.1,8.1,75,0.00,CLR,,0.00,WeatherDisplay:10.37,2013-09-06 14:24:00,
2013-09-06 10:29:00,58.1,49.9,30.27,South,191,5.8,5.8,74,0.00,CLR,,0.00,WeatherDisplay:10.37,2013-09-06 14:29:00,
2013-09-06 10:34:00,58.3,49.7,30.27,SSW,211,9.2,9.2,73,0.00,CLR,,0.00,WeatherDisplay:10.37,2013-09-06 14:34:00,
2013-09-06 10:39:00,59.1,50.5,30.26,SSW,211,7.5,7.5,73,0.00,CLR,,0.00,WeatherDisplay:10.37,2013-09-06 14:39:00,
2013-09-06 10:44:00,59.5,50.5,30.26,SSW,193,10.4,10.4,72,0.00,CLR,,0.00,WeatherDisplay:10.37,2013-09-06 14:44:00,
2013-09-06 10:49:00,59.9,50.8,30.26,South,183,10.4,10.4,72,0.00,CLR,,0.00,WeatherDisplay:10.37,2013-09-06 14:49:00,
2013-09-06 10:54:00,60.1,51.0,30.26,South,187,6.9,6.9,72,0.00,CLR,,0.00,WeatherDisplay:10.37,2013-09-06 14:54:00,
2013-09-06 10:59:00,60.7,51.2,30.26,SSW,208,11.8,11.8,71,0.00,CLR,,0.00,WeatherDisplay:10.37,2013-09-06 14:59:00,
2013-09-06 11:04:00,61.5,51.6,30.25,SW,223,9.2,9.2,70,0.00,CLR,,0.00,WeatherDisplay:10.37,2013-09-06 15:04:00,
2013-09-06 11:09:00,61.4,51.5,30.26,WSW,245,11.5,11.5,70,0.00,CLR,,0.00,WeatherDisplay:10.37,2013-09-06 15:09:00,
2013-09-06 11:14:00,62.1,51.4,30.26,WSW,237,11.5,11.5,68,0.00,CLR,,0.00,WeatherDisplay:10.37,2013-09-06 15:14:00,
2013-09-06 11:19:00,62.5,51.8,30.25,SSW,198,8.1,8.1,68,0.00,CLR,,0.00,WeatherDisplay:10.37,2013-09-06 15:19:00,
2013-09-06 11:24:00,63.0,52.3,30.25,South,184,9.2,9.2,68,0.00,CLR,,0.00,WeatherDisplay:10.37,2013-09-06 15:24:00,
2013-09-06 11:29:00,63.0,52.3,30.25,SSE,166,8.1,8.1,68,0.00,CLR,,0.00,WeatherDisplay:10.37,2013-09-06 15:29:00,
2013-09-06 11:34:00,63.3,52.6,30.25,WSW,239,10.4,10.4,68,0.00,CLR,,0.00,WeatherDisplay:10.37,2013-09-06 15:34:00,
2013-09-06 11:39:00,63.7,52.1,30.25,SW,231,10.4,10.4,66,0.00,CLR,,0.00,WeatherDisplay:10.37,2013-09-06 15:39:00,
2013-09-06 11:44:00,64.1,52.9,30.24,SW,227,8.1,8.1,67,0.00,CLR,,0.00,WeatherDisplay:10.37,2013-09-06 15:44:00,
2013-09-06 11:50:00,64.4,52.8,30.25,West,261,10.4,10.4,66,0.00,CLR,,0.00,WeatherDisplay:10.37,2013-09-06 15:50:00,
2013-09-06 11:55:00,64.8,52.8,30.24,South,191,10.4,10.4,65,0.00,CLR,,0.00,WeatherDisplay:10.37,2013-09-06 15:55:00,
2013-09-06 12:00:00,65.0,52.1,30.24,WSW,249,9.6,9.6,63,0.00,CLR,,0.00,WeatherDisplay:10.37,2013-09-06 16:00:00,
2013-09-06 12:05:00,65.6,52.2,30.23,SW,233,11.5,11.5,62,0.00,CLR,,0.00,WeatherDisplay:10.37,2013-09-06 16:05:00,
2013-09-06 12:10:00,65.7,52.8,30.23,SSW,206,11.5,11.5,63,0.00,CLR,,0.00,WeatherDisplay:10.37,2013-09-06 16:10:00,
2013-09-06 12:15:00,65.3,52.4,30.23,WSW,241,11.8,11.8,63,0.00,CLR,,0.00,WeatherDisplay:10.37,2013-09-06 16:15:00,
2013-09-06 12:20:00,65.6,52.2,30.23,SSW,201,9.2,9.2,62,0.00,CLR,,0.00,WeatherDisplay:10.37,2013-09-06 16:20:00,
2013-09-06 12:25:00,66.1,51.8,30.23,SSW,212,11.5,11.5,60,0.00,CLR,,0.00,WeatherDisplay:10.37,2013-09-06 16:25:00,
2013-09-06 12:30:00,65.7,52.3,30.23,SSW,196,8.1,8.1,62,0.00,CLR,,0.00,WeatherDisplay:10.37,2013-09-06 16:30:00,
2013-09-06 12:35:00,66.6,52.3,30.23,SSW,206,8.1,8.6,60,0.00,CLR,,0.00,WeatherDisplay:10.37,2013-09-06 16:35:00,
2013-09-06 12:40:00,66.7,52.8,30.23,South,170,8.1,8.1,61,0.00,CLR,,0.00,WeatherDisplay:10.37,2013-09-06 16:40:00,
2013-09-06 12:45:00,67.7,51.9,30.22,SSW,202,8.1,8.1,57,0.00,CLR,,0.00,WeatherDisplay:10.37,2013-09-06 16:45:00,
2013-09-06 12:50:00,67.9,52.6,30.22,South,187,9.2,9.2,58,0.00,CLR,,0.00,WeatherDisplay:10.37,2013-09-06 16:50:00,
2013-09-06 12:55:00,67.8,52.0,30.22,South,180,8.1,8.1,57,0.00,CLR,,0.00,WeatherDisplay:10.37,2013-09-06 16:55:00,
2013-09-06 13:00:00,68.0,52.7,30.22,SSE,153,6.9,6.9,58,0.00,CLR,,0.00,WeatherDisplay:10.37,2013-09-06 17:00:00,
2013-09-06 13:05:00,67.7,52.4,30.22,South,177,10.7,10.7,58,0.00,CLR,,0.00,WeatherDisplay:10.37,2013-09-06 17:05:00,
2013-09-06 13:10:00,67.8,52.5,30.22,South,185,12.7,12.7,58,0.00,CLR,,0.00,WeatherDisplay:10.37,2013-09-06 17:10:00,
2013-09-06 13:15:00,68.4,52.1,30.21,SSW,200,8.1,8.1,56,0.00,CLR,,0.00,WeatherDisplay:10.37,2013-09-06 17:15:00,
2013-09-06 13:20:00,68.3,52.9,30.21,SSW,196,12.7,12.7,58,0.00,CLR,,0.00,WeatherDisplay:10.37,2013-09-06 17:20:00,
2013-09-06 13:25:00,68.4,52.1,30.20,South,179,9.2,9.2,56,0.00,CLR,,0.00,WeatherDisplay:10.37,2013-09-06 17:25:00,
2013-09-06 13:30:00,68.6,52.3,30.20,WSW,246,11.5,11.5,56,0.00,CLR,,0.00,WeatherDisplay:10.37,2013-09-06 17:30:00,
2013-09-06 13:35:00,68.8,52.5,30.20,SSW,202,11.5,11.5,56,0.00,CLR,,0.00,WeatherDisplay:10.37,2013-09-06 17:35:00,
2013-09-06 13:40:00,69.2,52.3,30.20,SW,219,8.1,8.1,55,0.00,CLR,,0.00,WeatherDisplay:10.37,2013-09-06 17:40:00,
2013-09-06 13:45:00,69.1,52.2,30.20,SSW,193,4.6,4.6,55,0.00,CLR,,0.00,WeatherDisplay:10.37,2013-09-06 17:45:00,
2013-09-06 13:50:00,69.3,52.4,30.20,SSW,195,10.4,10.4,55,0.00,CLR,,0.00,WeatherDisplay:10.37,2013-09-06 17:50:00,
2013-09-06 13:55:00,69.3,52.9,30.20,SSE,165,8.1,8.1,56,0.00,CLR,,0.00,WeatherDisplay:10.37,2013-09-06 17:55:00,
2013-09-06 14:00:00,69.4,52.0,30.19,SW,218,10.7,10.7,54,0.00,CLR,,0.00,WeatherDisplay:10.37,2013-09-06 18:00:00,
2013-09-06 14:05:00,69.8,52.4,30.19,SSW,208,8.1,8.1,54,0.00,CLR,,0.00,WeatherDisplay:10.37,2013-09-06 18:05:00,
2013-09-06 14:10:00,70.2,53.3,30.19,South,175,8.1,8.1,55,0.00,CLR,,0.00,WeatherDisplay:10.37,2013-09-06 18:10:00,
2013-09-06 14:15:00,69.9,52.0,30.19,SSW,204,11.5,11.5,53,0.00,CLR,,0.00,WeatherDisplay:10.37,2013-09-06 18:15:00,
2013-09-06 14:20:00,70.0,52.1,30.18,SSW,201,8.1,8.1,53,0.00,CLR,,0.00,WeatherDisplay:10.37,2013-09-06 18:20:00,
2013-09-06 14:25:00,70.1,52.2,30.18,SSW,208,12.7,12.7,53,0.00,CLR,,0.00,WeatherDisplay:10.37,2013-09-06 18:25:00,
2013-09-06 14:30:00,70.4,52.4,30.18,SW,214,9.2,9.2,53,0.00,CLR,,0.00,WeatherDisplay:10.37,2013-09-06 18:30:00,
2013-09-06 14:35:00,70.3,52.9,30.17,South,180,11.5,11.5,54,0.00,CLR,,0.00,WeatherDisplay:10.37,2013-09-06 18:35:00,
2013-09-06 14:40:00,70.3,52.9,30.17,SSW,195,11.5,11.5,54,0.00,CLR,,0.00,WeatherDisplay:10.37,2013-09-06 18:40:00,
2013-09-06 14:45:00,71.0,53.5,30.16,WSW,247,9.2,9.2,54,0.00,CLR,,0.00,WeatherDisplay:10.37,2013-09-06 18:45:00,
2013-09-06 14:50:00,71.2,52.7,30.16,South,185,9.2,9.2,52,0.00,CLR,,0.00,WeatherDisplay:10.37,2013-09-06 18:50:00,
2013-09-06 14:55:00,71.5,52.9,30.16,SSW,211,9.2,9.2,52,0.00,CLR,,0.00,WeatherDisplay:10.37,2013-09-06 18:55:00,
2013-09-06 15:00:00,71.9,53.8,30.16,SW,231,9.6,9.6,53,0.00,CLR,,0.00,WeatherDisplay:10.37,2013-09-06 19:00:00,
2013-09-06 15:05:00,71.7,53.1,30.16,SSW,204,13.8,13.8,52,0.00,CLR,,0.00,WeatherDisplay:10.37,2013-09-06 19:05:00,
2013-09-06 15:10:00,71.5,53.5,30.16,South,174,10.4,10.4,53,0.00,CLR,,0.00,WeatherDisplay:10.37,2013-09-06 19:10:00,
2013-09-06 15:15:00,71.6,53.0,30.16,South,184,11.5,11.5,52,0.00,CLR,,0.00,WeatherDisplay:10.37,2013-09-06 19:15:00,
2013-09-06 15:20:00,71.3,52.8,30.16,SSW,208,11.5,11.5,52,0.00,CLR,,0.00,WeatherDisplay:10.37,2013-09-06 19:20:00,
2013-09-06 15:25:00,71.7,53.1,30.16,SW,233,9.2,9.2,52,0.00,CLR,,0.00,WeatherDisplay:10.37,2013-09-06 19:25:00,
2013-09-06 15:30:00,71.8,52.7,30.16,SSW,212,10.4,10.4,51,0.00,CLR,,0.00,WeatherDisplay:10.37,2013-09-06 19:30:00,
2013-09-06 15:35:00,71.7,54.2,30.15,South,187,10.4,10.4,54,0.00,CLR,,0.00,WeatherDisplay:10.37,2013-09-06 19:35:00,
2013-09-06 15:40:00,71.8,53.7,30.15,South,181,8.1,8.1,53,0.00,CLR,,0.00,WeatherDisplay:10.37,2013-09-06 19:40:00,
2013-09-06 15:45:00,72.0,53.4,30.15,SSW,208,6.9,6.9,52,0.00,CLR,,0.00,WeatherDisplay:10.37,2013-09-06 19:45:00,
2013-09-06 15:50:00,71.9,53.3,30.15,South,175,11.5,11.5,52,0.00,CLR,,0.00,WeatherDisplay:10.37,2013-09-06 19:50:00,
2013-09-06 15:55:00,72.6,54.5,30.15,South,182,8.1,8.1,53,0.00,CLR,,0.00,WeatherDisplay:10.37,2013-09-06 19:55:00,
2013-09-06 16:00:00,72.7,53.5,30.15,SW,229,9.2,9.2,51,0.00,CLR,,0.00,WeatherDisplay:10.37,2013-09-06 20:00:00,
2013-09-06 16:05:00,72.4,53.8,30.15,South,175,11.5,11.5,52,0.00,CLR,,0.00,WeatherDisplay:10.37,2013-09-06 20:05:00,
2013-09-06 16:10:00,72.5,53.9,30.16,SSW,200,10.7,10.7,52,0.00,CLR,,0.00,WeatherDisplay:10.37,2013-09-06 20:10:00,
2013-09-06 16:15:00,72.5,53.3,30.15,SW,231,6.9,6.9,51,0.00,CLR,,0.00,WeatherDisplay:10.37,2013-09-06 20:15:00,
2013-09-06 16:20:00,72.6,54.0,30.15,SSE,167,3.5,3.5,52,0.00,CLR,,0.00,WeatherDisplay:10.37,2013-09-06 20:20:00,
2013-09-06 16:25:00,72.7,54.6,30.15,SSW,212,8.1,8.1,53,0.00,CLR,,0.00,WeatherDisplay:10.37,2013-09-06 20:25:00,
2013-09-06 16:30:00,72.4,54.3,30.15,South,183,10.4,10.4,53,0.00,CLR,,0.00,WeatherDisplay:10.37,2013-09-06 20:30:00,
2013-09-06 16:36:00,72.7,54.1,30.15,South,181,9.2,9.2,52,0.00,CLR,,0.00,WeatherDisplay:10.37,2013-09-06 20:36:00,
2013-09-06 16:41:00,72.6,55.0,30.14,SE,137,10.4,10.4,54,0.00,CLR,,0.00,WeatherDisplay:10.37,2013-09-06 20:41:00,
2013-09-06 16:46:00,72.9,54.2,30.14,South,191,5.8,5.8,52,0.00,CLR,,0.00,WeatherDisplay:10.37,2013-09-06 20:46:00,
2013-09-06 16:51:00,72.6,54.0,30.14,South,185,9.2,9.5,52,0.00,CLR,,0.00,WeatherDisplay:10.37,2013-09-06 20:51:00,
2013-09-06 16:56:00,72.3,54.2,30.14,SSW,210,12.7,12.7,53,0.00,CLR,,0.00,WeatherDisplay:10.37,2013-09-06 20:56:00,
2013-09-06 17:01:00,72.9,54.8,30.13,SSE,164,5.8,5.8,53,0.00,CLR,,0.00,WeatherDisplay:10.37,2013-09-06 21:01:00,
2013-09-06 17:06:00,72.9,54.2,30.13,South,183,11.5,11.5,52,0.00,CLR,,0.00,WeatherDisplay:10.37,2013-09-06 21:06:00,
2013-09-06 17:11:00,73.1,53.4,30.12,South,180,11.5,11.5,50,0.00,CLR,,0.00,WeatherDisplay:10.37,2013-09-06 21:11:00,
2013-09-06 17:16:00,72.8,53.6,30.12,SW,235,9.2,9.2,51,0.00,CLR,,0.00,WeatherDisplay:10.37,2013-09-06 21:16:00,
2013-09-06 17:21:00,72.9,54.2,30.11,SSW,206,11.5,11.5,52,0.00,CLR,,0.00,WeatherDisplay:10.37,2013-09-06 21:21:00,
2013-09-06 17:26:00,72.4,54.3,30.11,SSW,200,13.8,13.8,53,0.00,CLR,,0.00,WeatherDisplay:10.37,2013-09-06 21:26:00,
2013-09-06 17:31:00,72.3,54.2,30.11,South,185,11.5,11.5,53,0.00,CLR,,0.00,WeatherDisplay:10.37,2013-09-06 21:31:00,
2013-09-06 17:36:00,72.5,53.9,30.11,SSW,193,10.4,10.8,52,0.00,CLR,,0.00,WeatherDisplay:10.37,2013-09-06 21:36:00,
2013-09-06 17:41:00,72.2,54.1,30.11,SSW,204,11.5,11.5,53,0.00,CLR,,0.00,WeatherDisplay:10.37,2013-09-06 21:41:00,
2013-09-06 17:46:00,72.4,53.8,30.11,South,180,8.6,8.6,52,0.00,CLR,,0.00,WeatherDisplay:10.37,2013-09-06 21:46:00,
2013-09-06 17:51:00,72.3,53.7,30.11,SW,216,10.4,10.4,52,0.00,CLR,,0.00,WeatherDisplay:10.37,2013-09-06 21:51:00,
2013-09-06 17:56:00,72.7,54.1,30.11,SSW,193,8.1,8.1,52,0.00,CLR,,0.00,WeatherDisplay:10.37,2013-09-06 21:56:00,
2013-09-06 18:01:00,72.6,54.0,30.12,SSW,196,10.4,10.4,52,0.00,CLR,,0.00,WeatherDisplay:10.37,2013-09-06 22:01:00,
2013-09-06 18:06:00,72.6,54.0,30.12,SSW,198,8.1,8.1,52,0.00,CLR,,0.00,WeatherDisplay:10.37,2013-09-06 22:06:00,
2013-09-06 18:11:00,72.3,53.7,30.12,SSW,202,0.0,0.2,52,0.00,CLR,,0.00,WeatherDisplay:10.37,2013-09-06 22:11:00,
2013-09-06 18:16:00,72.1,53.5,30.12,South,183,6.9,6.9,52,0.00,CLR,,0.00,WeatherDisplay:10.37,2013-09-06 22:16:00,
2013-09-06 18:21:00,72.0,53.9,30.12,South,175,3.5,3.5,53,0.00,CLR,,0.00,WeatherDisplay:10.37,2013-09-06 22:21:00,
2013-09-06 18:26:00,72.2,54.1,30.11,SSW,193,6.9,6.9,53,0.00,CLR,,0.00,WeatherDisplay:10.37,2013-09-06 22:26:00,
2013-09-06 18:31:00,72.2,54.1,30.11,SSW,193,8.1,8.1,53,0.00,CLR,,0.00,WeatherDisplay:10.37,2013-09-06 22:31:00,
2013-09-06 18:36:00,72.1,54.0,30.10,South,181,6.9,6.9,53,0.00,CLR,,0.00,WeatherDisplay:10.37,2013-09-06 22:36:00,
2013-09-06 18:41:00,72.0,53.9,30.10,SSW,199,10.4,10.4,53,0.00,CLR,,0.00,WeatherDisplay:10.37,2013-09-06 22:41:00,
2013-09-06 18:46:00,72.2,55.1,30.10,South,187,5.8,5.8,55,0.00,CLR,,0.00,WeatherDisplay:10.37,2013-09-06 22:46:00,
2013-09-06 18:51:00,72.0,54.4,30.10,SSW,198,9.2,9.2,54,0.00,CLR,,0.00,WeatherDisplay:10.37,2013-09-06 22:51:00,
2013-09-06 18:56:00,72.1,54.5,30.10,SSW,196,1.2,1.6,54,0.00,CLR,,0.00,WeatherDisplay:10.37,2013-09-06 22:56:00,
2013-09-06 19:01:00,71.9,54.9,30.10,South,187,5.8,5.8,55,0.00,CLR,,0.00,WeatherDisplay:10.37,2013-09-06 23:01:00,
2013-09-06 19:06:00,71.8,54.8,30.09,SSW,203,6.9,6.9,55,0.00,CLR,,0.00,WeatherDisplay:10.37,2013-09-06 23:06:00,
2013-09-06 19:11:00,71.6,55.1,30.09,SSW,194,8.6,8.6,56,0.00,CLR,,0.00,WeatherDisplay:10.37,2013-09-06 23:11:00,
2013-09-06 19:16:00,71.4,54.9,30.09,South,183,4.6,4.6,56,0.00,CLR,,0.00,WeatherDisplay:10.37,2013-09-06 23:16:00,
2013-09-06 19:21:00,71.2,55.2,30.09,South,187,8.1,8.1,57,0.00,CLR,,0.00,WeatherDisplay:10.37,2013-09-06 23:21:00,
2013-09-06 19:26:00,71.2,55.2,30.08,SW,229,5.8,5.8,57,0.00,CLR,,0.00,WeatherDisplay:10.37,2013-09-06 23:26:00,
2013-09-06 19:31:00,71.1,55.1,30.08,South,177,6.9,6.9,57,0.00,CLR,,0.00,WeatherDisplay:10.37,2013-09-06 23:31:00,
2013-09-06 19:36:00,70.8,54.8,30.08,South,187,6.9,6.9,57,0.00,CLR,,0.00,WeatherDisplay:10.37,2013-09-06 23:36:00,
2013-09-06 19:41:00,70.5,55.0,30.08,SSW,203,8.1,8.1,58,0.00,CLR,,0.00,WeatherDisplay:10.37,2013-09-06 23:41:00,
2013-09-06 19:46:00,70.5,55.5,30.08,SSW,210,6.9,6.9,59,0.00,CLR,,0.00,WeatherDisplay:10.37,2013-09-06 23:46:00,
2013-09-06 19:51:00,70.4,55.4,30.08,South,181,4.6,0.0,59,0.00,CLR,,0.00,WeatherDisplay:10.37,2013-09-06 23:51:00,
2013-09-06 19:56:00,70.1,55.1,30.08,South,181,4.6,4.6,59,0.00,CLR,,0.00,WeatherDisplay:10.37,2013-09-06 23:56:00,
2013-09-06 20:01:00,69.9,55.4,30.08,South,181,0.0,0.0,60,0.00,CLR,,0.00,WeatherDisplay:10.37,2013-09-07 00:01:00,
2013-09-06 20:06:00,69.8,55.3,30.07,South,191,5.8,0.0,60,0.00,CLR,,0.00,WeatherDisplay:10.37,2013-09-07 00:06:00,
2013-09-06 20:11:00,69.7,55.6,30.07,South,187,1.2,1.2,61,0.00,CLR,,0.00,WeatherDisplay:10.37,2013-09-07 00:11:00,
2013-09-06 20:16:00,69.5,55.5,30.07,South,188,0.0,0.0,61,0.00,CLR,,0.00,WeatherDisplay:10.37,2013-09-07 00:16:00,
2013-09-06 20:21:00,69.4,55.8,30.08,South,187,0.0,0.0,62,0.00,CLR,,0.00,WeatherDisplay:10.37,2013-09-07 00:21:00,
2013-09-06 20:26:00,69.1,55.5,30.07,South,184,0.0,0.0,62,0.00,CLR,,0.00,WeatherDisplay:10.37,2013-09-07 00:26:00,
2013-09-06 20:31:00,68.9,55.3,30.07,SSW,210,5.8,5.8,62,0.00,CLR,,0.00,WeatherDisplay:10.37,2013-09-07 00:31:00,
2013-09-06 20:36:00,68.8,55.7,30.08,SSW,198,0.0,0.0,63,0.00,CLR,,0.00,WeatherDisplay:10.37,2013-09-07 00:36:00,
2013-09-06 20:41:00,68.6,55.9,30.07,SSW,198,0.0,0.0,64,0.00,CLR,,0.00,WeatherDisplay:10.37,2013-09-07 00:41:00,
2013-09-06 20:46:00,68.3,55.6,30.07,SSW,196,0.0,0.0,64,0.00,CLR,,0.00,WeatherDisplay:10.37,2013-09-07 00:46:00,
2013-09-06 20:51:00,68.0,55.8,30.07,South,190,4.6,4.6,65,0.00,CLR,,0.00,WeatherDisplay:10.37,2013-09-07 00:51:00,
2013-09-06 20:56:00,67.7,55.5,30.07,SSW,193,0.0,0.0,65,0.00,CLR,,0.00,WeatherDisplay:10.37,2013-09-07 00:56:00,
2013-09-06 21:01:00,67.5,55.3,30.07,South,189,1.2,1.2,65,0.00,CLR,,0.00,WeatherDisplay:10.37,2013-09-07 01:01:00,
2013-09-06 21:06:00,67.2,55.5,30.07,South,182,6.9,6.9,66,0.00,CLR,,0.00,WeatherDisplay:10.37,2013-09-07 01:06:00,
2013-09-06 21:11:00,67.0,55.7,30.07,South,186,0.0,0.0,67,0.00,CLR,,0.00,WeatherDisplay:10.37,2013-09-07 01:11:00,
2013-09-06 21:16:00,66.8,55.5,30.07,South,191,5.8,5.8,67,0.00,CLR,,0.00,WeatherDisplay:10.37,2013-09-07 01:16:00,
2013-09-06 21:21:00,66.6,55.3,30.07,South,190,3.5,3.5,67,0.00,CLR,,0.00,WeatherDisplay:10.37,2013-09-07 01:21:00,
2013-09-06 21:26:00,66.5,55.2,30.06,South,187,0.0,0.0,67,0.00,CLR,,0.00,WeatherDisplay:10.37,2013-09-07 01:26:00,
2013-09-06 21:31:00,66.3,55.0,30.06,SSW,193,5.8,5.8,67,0.00,CLR,,0.00,WeatherDisplay:10.37,2013-09-07 01:31:00,
2013-09-06 21:36:00,66.1,55.2,30.06,South,185,5.8,5.8,68,0.00,CLR,,0.00,WeatherDisplay:10.37,2013-09-07 01:36:00,
2013-09-06 21:41:00,65.9,55.0,30.06,SSW,195,5.8,5.8,68,0.00,CLR,,0.00,WeatherDisplay:10.37,2013-09-07 01:41:00,
2013-09-06 21:46:00,65.8,54.9,30.06,SW,216,5.8,5.8,68,0.00,CLR,,0.00,WeatherDisplay:10.37,2013-09-07 01:46:00,
2013-09-06 21:51:00,65.7,54.8,30.06,SSW,197,6.9,6.9,68,0.00,CLR,,0.00,WeatherDisplay:10.37,2013-09-07 01:51:00,
2013-09-06 21:56:00,65.5,54.7,30.06,South,187,8.1,8.1,68,0.00,CLR,,0.00,WeatherDisplay:10.37,2013-09-07 01:56:00,
2013-09-06 22:01:00,65.4,55.0,30.05,SSE,158,6.9,6.9,69,0.00,CLR,,0.00,WeatherDisplay:10.37,2013-09-07 02:01:00,
2013-09-06 22:06:00,65.2,54.8,30.05,South,172,6.4,6.4,69,0.00,CLR,,0.00,WeatherDisplay:10.37,2013-09-07 02:06:00,
2013-09-06 22:11:00,65.1,54.7,30.05,South,184,4.6,4.6,69,0.00,CLR,,0.00,WeatherDisplay:10.37,2013-09-07 02:11:00,
2013-09-06 22:16:00,65.0,54.6,30.04,South,187,5.8,5.8,69,0.00,CLR,,0.00,WeatherDisplay:10.37,2013-09-07 02:16:00,
2013-09-06 22:21:00,65.0,54.6,30.04,South,185,0.0,0.0,69,0.00,CLR,,0.00,WeatherDisplay:10.37,2013-09-07 02:21:00,
2013-09-06 22:26:00,64.9,54.5,30.04,South,189,4.6,4.6,69,0.00,CLR,,0.00,WeatherDisplay:10.37,2013-09-07 02:26:00,
2013-09-06 22:31:00,64.7,54.7,30.04,SSW,192,5.8,5.8,70,0.00,CLR,,0.00,WeatherDisplay:10.37,2013-09-07 02:31:00,
2013-09-06 22:36:00,64.6,54.6,30.04,South,191,8.1,8.1,70,0.00,CLR,,0.00,WeatherDisplay:10.37,2013-09-07 02:36:00,
2013-09-06 22:41:00,64.6,54.6,30.04,SSW,198,3.5,3.5,70,0.00,CLR,,0.00,WeatherDisplay:10.37,2013-09-07 02:41:00,
2013-09-06 22:46:00,64.5,54.5,30.05,SSW,203,1.1,0.0,70,0.00,CLR,,0.00,WeatherDisplay:10.37,2013-09-07 02:46:00,
2013-09-06 22:51:00,64.5,54.5,30.04,SW,224,6.9,6.9,70,0.00,CLR,,0.00,WeatherDisplay:10.37,2013-09-07 02:51:00,
2013-09-06 22:56:00,64.5,54.5,30.04,South,189,6.9,6.9,70,0.00,CLR,,0.00,WeatherDisplay:10.37,2013-09-07 02:56:00,
2013-09-06 23:01:00,64.4,54.4,30.04,SSW,198,6.9,6.9,70,0.00,CLR,,0.00,WeatherDisplay:10.37,2013-09-07 03:01:00,
2013-09-06 23:06:00,64.3,54.3,30.04,SSW,207,9.2,9.2,70,0.00,CLR,,0.00,WeatherDisplay:10.37,2013-09-07 03:06:00,
2013-09-06 23:11:00,64.3,54.3,30.04,South,185,5.8,5.8,70,0.00,CLR,,0.00,WeatherDisplay:10.37,2013-09-07 03:11:00,
2013-09-06 23:16:00,64.2,54.2,30.04,SSW,205,1.2,1.8,70,0.00,CLR,,0.00,WeatherDisplay:10.37,2013-09-07 03:16:00,
2013-09-06 23:21:00,64.1,54.1,30.04,South,184,4.6,4.6,70,0.00,CLR,,0.00,WeatherDisplay:10.37,2013-09-07 03:21:00,
2013-09-06 23:26:00,63.9,54.3,30.04,South,184,0.0,0.0,71,0.00,CLR,,0.00,WeatherDisplay:10.37,2013-09-07 03:26:00,
2013-09-06 23:31:00,63.6,54.0,30.04,South,189,0.0,0.0,71,0.00,CLR,,0.00,WeatherDisplay:10.37,2013-09-07 03:31:00,
2013-09-06 23:36:00,63.4,54.2,30.04,South,189,0.0,0.0,72,0.00,CLR,,0.00,WeatherDisplay:10.37,2013-09-07 03:36:00,
2013-09-06 23:41:00,63.1,53.9,30.04,South,179,0.0,0.4,72,0.00,CLR,,0.00,WeatherDisplay:10.37,2013-09-07 03:41:00,
2013-09-06 23:47:00,62.9,53.7,30.03,SSW,193,8.1,8.1,72,0.00,CLR,,0.00,WeatherDisplay:10.37,2013-09-07 03:47:00,
2013-09-06 23:52:00,62.7,53.9,30.03,South,184,4.6,0.0,73,0.00,CLR,,0.00,WeatherDisplay:10.37,2013-09-07 03:52:00,
2013-09-06 23:57:00,62.4,53.6,30.03,SSW,203,8.1,8.1,73,0.00,CLR,,0.00,WeatherDisplay:10.37,2013-09-07 03:57:00,